sat.trackr.live / text

‹ back to catalog

ONEWEB-0246

NORAD 48786 · 2021-045V

PAYLOAD ACTIVE UNKNOWN

§ Identity

Operator
Country
UK
Launch date
2021-05-28
Launch site
VOSTO
Launch vehicle
Mass (kg)
RCS (m²)

Purposes: comms

External: N2YO · Heavens-Above · Gunter

§ Orbital elements

Epoch: 2026-05-25T01:20:37.808160Z

Period
109.46 min
Inclination
87.8998°
Eccentricity
0.0001913
Mean motion
13.15548016 rev/d
Perigee alt
1,200.3 km
Apogee alt
1,203.2 km
Semi-major
7,579.9 km
B*
-3.2676e-4
RAAN
263.7947°
Arg perigee
96.6293°
Mean anomaly
263.5055°
Rev number
24,123

§ Raw data

ONEWEB-02461 48786U 21045V   26145.05599315 -.00000110  00000+0 -32676-3 0  99902 48786  87.8998 263.7947 0001913  96.6293 263.5055 13.15548016241233

JSON: /api/v1/satellites/48786 · /tle

For live sub-satellite position, see the globe view (requires WebGL).

§ Visibility from observer

Set your observer location to see the next 7 days of passes ≥ 10°. The values pass through the URL so the page stays shareable.

No JS? Fill the form by hand. The geolocation button needs JavaScript.